User: anonymous   Login
Location: Newark
(13.8117°N, 3.6025°W)
Time: 07:34:30
(UTC+00:00)
Language:

Transit 2A Rocket - Orbit

View from above orbital plane
View from above orbital plane
View from above satellite
View from above satellite

Ground track
Ground track

The orbit data is extracted from the following two-line orbital elements,

1    47U 60007C   19230.78893190 -.00000065 +00000-0 +10508-4 0  9994
2    47 066.6639 246.9146 0226440 167.3887 193.3018 14.42045872090897
Epoch (UTC): 18 August 2019 18:56:03
Eccentricity: 0.0226440
inclination: 66.6639°
perigee height: 590 km
apogee height: 913 km
right ascension of ascending node: 246.9146°
argument of perigee: 167.3887°
revolutions per day: 14.42045872
mean anomaly at epoch: 193.3018°
orbit number at epoch: 9089

The dashed part of the orbit path shows where the satellite is in the earth's shadow,  

DLR